Regional Weather Roundup
Issued by NWS

Home | Current Version | Previous Version | Graphics & Text | Print | Product List | Glossary On
Versions: 1 2 3 4 5 6 7 8 9 10 11 12 13 14 15 16 17 18 19 20 21 22 23 24 25 26 27 28 29 30 31 32 33 34 35 36 37 38 39 40 41 42 43 44 45 46 47 48 49 50
000
ASUS43 KLSX 151757
RWRMO

WEATHER SUMMARY FOR MISSOURI
NATIONAL WEATHER SERVICE SPRINGFIELD MO
1200 PM CST FRI DEC 15 2017

NOTE: "FAIR" INDICATES FEW OR NO CLOUDS BELOW 12,000 FEET WITH NO
       SIGNIFICANT WEATHER AND/OR OBSTRUCTIONS TO VISIBILITY.
       CURRENT SKY AND/OR WEATHER CONDITIONS ARE NOT AVAILABLE FOR
       CHILLICOTHE AND FARMINGTON.

MOZ001>031-035>038-043-044-053-054-151900-
...NORTHERN AND WESTERN MISSOURI...

CITY           SKY/WX    TMP DP  RH WIND       PRES   REMARKS
KANSAS CTY INT MOSUNNY   42  22  44 W15       30.10F
6HR MIN TEMP:  29; 6HR MAX TEMP:  43;

LEE`S SUMMIT   SUNNY     41  22  46 W8        30.12F
6HR MIN TEMP:  30; 6HR MAX TEMP:  41;

ST JOSEPH      SUNNY     43  23  45 SW15      30.08F
6HR MIN TEMP:  23; 6HR MAX TEMP:  43;

CHILLICOTHE      N/A     43  19  38 SW9       30.09F
6HR MIN TEMP:  30; 6HR MAX TEMP:  44;


$$
MOZ066>068-077>081-088>096-101>105-151900-
...SOUTHWEST MISSOURI...

CITY           SKY/WX    TMP DP  RH WIND       PRES   REMARKS
SPRINGFIELD    MOSUNNY   40  30  67 W12       30.14F
6HR MIN TEMP:  33; 6HR MAX TEMP:  43;

JOPLIN         MOSUNNY   44  29  55 W15       30.18F
6HR MIN TEMP:  31; 6HR MAX TEMP:  45;

BRANSON        MOSUNNY   43  28  56 W7        30.16F

$$
MOZ032>034-039>042-045>050-055>058-069>072-151900-
...CENTRAL MISSOURI...

CITY           SKY/WX    TMP DP  RH WIND       PRES   REMARKS
COLUMBIA       NOT AVBL
JEFFERSON CITY SUNNY     42  20  41 W13G25    30.12F
6HR MIN TEMP:  29; 6HR MAX TEMP:  42;

ROLLA          MOSUNNY   39  25  57 W10G20    30.11F
6HR MIN TEMP:  29; 6HR MAX TEMP:  41;

SEDALIA        PTSUNNY   42  24  49 W10G21    30.13F
6HR MIN TEMP:  32; 6HR MAX TEMP:  43;

WARRENSBURG    SUNNY     41  21  45 W10       30.13F

$$
MOZ051-052-059>065-151900-
...EAST CENTRAL MISSOURI...

CITY           SKY/WX    TMP DP  RH WIND       PRES   REMARKS
ST LOUIS INTL  MOSUNNY   43  25  49 W12G25    30.09F
6HR MIN TEMP:  30; 6HR MAX TEMP:  43;


$$
MOZ072>076-082>087-097>100-106>115-151900-
...SOUTH CENTRAL AND SOUTHEAST MISSOURI...

CITY           SKY/WX    TMP DP  RH WIND       PRES   REMARKS
CAPE GIRARDEAU SUNNY     43  25  49 SW13      30.13F
6HR MIN TEMP:  28; 6HR MAX TEMP:  43;

POPLAR BLUFF   SUNNY     45  27  49 SW10      30.14F
6HR MIN TEMP:  31; 6HR MAX TEMP:  45;

WEST PLAINS    SUNNY     46  27  47 W10       30.12F
6HR MIN TEMP:  27; 6HR MAX TEMP:  46;


$$



USA.gov is the U.S. government's official web portal to all federal, state and local government web resources and services.